START_TIME,STEP,MOV.,A39,t_acc.,A33,t_acc.,P32,t_acc.,P31,t_acc.
1979-03-08 22:23:09.310 ,0,0,,0,,0,,0,,0
1979-03-08 22:23:10.110 ,0,0,1.,0.8,0.,0.8,0.,0.8,5.,0.8
1979-03-08 22:23:10.910 ,0,0,2.,0.8,0.,0.8,0.,0.8,2.,0.8
1979-03-08 22:23:11.710 ,0,0,1.,0.8,0.,0.8,0.,0.8,5.,0.8
1979-03-08 22:23:12.510 ,0,0,2.,0.8,0.,0.8,0.,0.8,3.,0.8
1979-03-08 22:23:13.310 ,0,0,2.,0.8,0.,0.8,0.,0.8,6.,0.8
1979-03-08 22:23:14.110 ,0,0,5.,0.8,0.,0.8,0.,0.8,5.,0.8
1979-03-08 22:23:14.910 ,0,0,1.,0.8,0.,0.8,0.,0.8,3.,0.8
1979-03-08 22:23:15.710 ,0,0,0.,0.8,0.,0.8,0.,0.8,3.,0.8
1979-03-08 22:23:16.510 ,0,0,1.,0.8,0.,0.8,0.,0.8,2.,0.8
1979-03-08 22:23:17.310 ,0,0,0.,0.8,0.,0.8,0.,0.8,3.,0.8
1979-03-08 22:23:18.110 ,0,0,1.,0.8,0.,0.8,0.,0.8,6.,0.8
1979-03-08 22:23:18.910 ,0,0,1.,0.8,0.,0.8,0.,0.8,4.,0.8
1979-03-08 22:23:19.710 ,0,0,1.,0.8,0.,0.8,0.,0.8,4.,0.8
1979-03-08 22:23:20.510 ,0,0,1.,0.8,0.,0.8,0.,0.8,2.,0.8
1979-03-08 22:23:21.310 ,0,0,1.,0.8,0.,0.8,0.,0.8,2.,0.8
1979-03-08 22:23:22.110 ,0,0,1.,0.8,0.,0.8,0.,0.8,8.,0.8
1979-03-08 22:23:22.910 ,0,0,1.,0.8,0.,0.8,0.,0.8,5.,0.8
1979-03-08 22:23:23.710 ,0,0,1.,0.8,0.,0.8,0.,0.8,2.,0.8
1979-03-08 22:23:24.510 ,0,0,2.,0.8,0.,0.8,0.,0.8,5.,0.8
1979-03-08 22:23:25.310 ,0,0,2.,0.8,0.,0.8,0.,0.8,2.,0.8
1979-03-08 22:23:26.110 ,0,0,1.,0.8,0.,0.8,0.,0.8,9.,0.8
1979-03-08 22:23:26.910 ,0,0,1.,0.8,0.,0.8,0.,0.8,4.,0.8
1979-03-08 22:23:27.710 ,0,0,2.,0.8,0.,0.8,0.,0.8,6.,0.8
1979-03-08 22:23:28.510 ,0,0,2.,0.8,0.,0.8,0.,0.8,7.,0.8
1979-03-08 22:23:29.310 ,0,0,1.,0.8,0.,0.8,0.,0.8,3.,0.8
1979-03-08 22:23:30.110 ,0,0,2.,0.8,0.,0.8,0.,0.8,4.,0.8
1979-03-08 22:23:30.910 ,0,0,0.,0.8,0.,0.8,0.,0.8,4.,0.8
1979-03-08 22:23:31.710 ,0,0,3.,0.8,0.,0.8,0.,0.8,5.,0.8
1979-03-08 22:23:32.510 ,0,0,0.,0.8,0.,0.8,0.,0.8,1.,0.8
1979-03-08 22:23:32.710 ,0,0,2.,0.8,0.,0.8,0.,0.8,4.,0.8
1979-03-08 22:23:33.510 ,0,0,0.,0.8,0.,0.8,0.,0.8,2.,0.8
1979-03-08 22:23:34.310 ,0,0,1.,0.8,0.,0.8,0.,0.8,3.,0.8
1979-03-08 22:23:35.110 ,0,0,1.,0.8,0.,0.8,0.,0.8,7.,0.8
1979-03-08 22:23:35.910 ,0,0,2.,0.8,0.,0.8,0.,0.8,6.,0.8
1979-03-08 22:23:36.710 ,0,0,2.,0.8,0.,0.8,0.,0.8,6.,0.8
1979-03-08 22:23:37.510 ,0,0,1.,0.8,0.,0.8,1.,0.8,4.,0.8
1979-03-08 22:23:38.310 ,0,0,1.,0.8,0.,0.8,0.,0.8,3.,0.8
1979-03-08 22:23:39.110 ,0,0,2.,0.8,0.,0.8,0.,0.8,2.,0.8
1979-03-08 22:23:39.910 ,0,0,0.,0.8,0.,0.8,0.,0.8,3.,0.8
1979-03-08 22:23:40.710 ,0,0,2.,0.8,0.,0.8,0.,0.8,5.,0.8
1979-03-08 22:23:41.510 ,0,0,0.,0.8,0.,0.8,0.,0.8,5.,0.8
1979-03-08 22:23:42.310 ,0,0,2.,0.8,0.,0.8,0.,0.8,4.,0.8
1979-03-08 22:23:43.110 ,0,0,1.,0.8,0.,0.8,0.,0.8,3.,0.8
1979-03-08 22:23:43.910 ,0,0,1.,0.8,0.,0.8,0.,0.8,3.,0.8
1979-03-08 22:23:44.710 ,0,0,1.,0.8,0.,0.8,0.,0.8,4.,0.8
1979-03-08 22:23:45.510 ,0,0,0.,0.8,0.,0.8,0.,0.8,0.,0.8
1979-03-08 22:23:46.310 ,0,0,2.,0.8,0.,0.8,0.,0.8,7.,0.8
1979-03-08 22:23:47.110 ,0,0,1.,0.8,0.,0.8,0.,0.8,5.,0.8
1979-03-08 22:23:47.910 ,0,0,2.,0.8,0.,0.8,0.,0.8,3.,0.8
1979-03-08 22:23:48.710 ,0,0,0.,0.8,0.,0.8,0.,0.8,1.,0.8
1979-03-08 22:23:49.510 ,0,0,2.,0.8,0.,0.8,0.,0.8,4.,0.8
1979-03-08 22:23:50.310 ,0,0,1.,0.8,0.,0.8,0.,0.8,5.,0.8
1979-03-08 22:23:51.110 ,0,0,1.,0.8,0.,0.8,0.,0.8,2.,0.8
1979-03-08 22:23:51.910 ,0,0,1.,0.8,0.,0.8,0.,0.8,5.,0.8
1979-03-08 22:23:52.710 ,0,0,4.,0.8,0.,0.8,0.,0.8,4.,0.8
1979-03-08 22:23:53.510 ,0,0,1.,0.8,0.,0.8,0.,0.8,2.,0.8
1979-03-08 22:23:54.310 ,0,0,1.,0.8,0.,0.8,0.,0.8,3.,0.8
1979-03-08 22:23:55.110 ,0,0,1.,0.8,0.,0.8,0.,0.8,3.,0.8
1979-03-08 22:23:55.910 ,0,0,0.,0.8,0.,0.8,0.,0.8,1.,0.8
1979-03-08 22:23:56.710 ,1,0,2.,0.8,0.,0.8,0.,0.8,5.,0.8
1979-03-08 22:23:57.510 ,1,0,1.,0.8,0.,0.8,0.,0.8,3.,0.8
1979-03-08 22:23:58.310 ,1,0,0.,0.8,0.,0.8,0.,0.8,1.,0.8
1979-03-08 22:23:59.110 ,1,0,1.,0.8,0.,0.8,0.,0.8,8.,0.8
1979-03-08 22:23:59.910 ,1,0,1.,0.8,0.,0.8,0.,0.8,2.,0.8
1979-03-08 22:24:00.710 ,1,0,1.,0.8,0.,0.8,0.,0.8,5.,0.8
1979-03-08 22:24:01.510 ,1,0,2.,0.8,0.,0.8,0.,0.8,2.,0.8
1979-03-08 22:24:02.310 ,1,0,2.,0.8,0.,0.8,0.,0.8,5.,0.8
1979-03-08 22:24:03.110 ,1,0,3.,0.8,0.,0.8,0.,0.8,6.,0.8
1979-03-08 22:24:03.910 ,1,0,1.,0.8,0.,0.8,0.,0.8,1.,0.8
1979-03-08 22:24:04.710 ,1,0,1.,0.8,0.,0.8,0.,0.8,2.,0.8
1979-03-08 22:24:05.510 ,1,0,2.,0.8,0.,0.8,0.,0.8,6.,0.8
1979-03-08 22:24:06.310 ,1,0,0.,0.8,0.,0.8,0.,0.8,1.,0.8
1979-03-08 22:24:07.110 ,1,0,2.,0.8,0.,0.8,0.,0.8,5.,0.8
1979-03-08 22:24:07.910 ,1,0,0.,0.8,0.,0.8,0.,0.8,2.,0.8
1979-03-08 22:24:08.710 ,1,0,3.,0.8,0.,0.8,0.,0.8,4.,0.8
1979-03-08 22:24:09.510 ,1,0,0.,0.8,0.,0.8,0.,0.8,0.,0.8
1979-03-08 22:24:10.310 ,1,0,1.,0.8,0.,0.8,0.,0.8,4.,0.8
1979-03-08 22:24:11.110 ,1,0,0.,0.8,0.,0.8,0.,0.8,3.,0.8
1979-03-08 22:24:11.910 ,1,0,1.,0.8,0.,0.8,0.,0.8,3.,0.8
1979-03-08 22:24:12.710 ,1,0,1.,0.8,0.,0.8,0.,0.8,1.,0.8
1979-03-08 22:24:13.510 ,1,0,1.,0.8,0.,0.8,0.,0.8,3.,0.8
1979-03-08 22:24:14.310 ,1,0,3.,0.8,0.,0.8,0.,0.8,4.,0.8
1979-03-08 22:24:15.110 ,1,0,1.,0.8,0.,0.8,0.,0.8,2.,0.8
1979-03-08 22:24:15.910 ,1,0,2.,0.8,0.,0.8,0.,0.8,5.,0.8
1979-03-08 22:24:16.710 ,1,0,1.,0.8,0.,0.8,0.,0.8,5.,0.8
1979-03-08 22:24:17.510 ,1,0,1.,0.8,0.,0.8,0.,0.8,4.,0.8
1979-03-08 22:24:18.310 ,1,0,0.,0.8,0.,0.8,0.,0.8,3.,0.8
1979-03-08 22:24:19.110 ,1,0,3.,0.8,0.,0.8,0.,0.8,5.,0.8
1979-03-08 22:24:19.910 ,1,0,1.,0.8,0.,0.8,0.,0.8,2.,0.8
1979-03-08 22:24:20.710 ,2,0,2.,0.8,0.,0.8,0.,0.8,2.,0.8
1979-03-08 22:24:21.510 ,2,0,2.,0.8,0.,0.8,0.,0.8,5.,0.8
1979-03-08 22:24:22.310 ,2,0,2.,0.8,0.,0.8,0.,0.8,2.,0.8
1979-03-08 22:24:23.110 ,2,0,0.,0.8,0.,0.8,0.,0.8,1.,0.8
1979-03-08 22:24:23.910 ,2,0,2.,0.8,0.,0.8,0.,0.8,4.,0.8
1979-03-08 22:24:24.710 ,2,0,3.,0.8,0.,0.8,0.,0.8,3.,0.8
1979-03-08 22:24:25.510 ,2,0,0.,0.8,0.,0.8,0.,0.8,2.,0.8
1979-03-08 22:24:26.310 ,2,0,1.,0.8,0.,0.8,0.,0.8,2.,0.8
1979-03-08 22:24:27.110 ,2,0,2.,0.8,0.,0.8,0.,0.8,5.,0.8
1979-03-08 22:24:27.910 ,2,0,1.,0.8,0.,0.8,0.,0.8,2.,0.8
1979-03-08 22:24:28.710 ,2,0,1.,0.8,0.,0.8,0.,0.8,5.,0.8
1979-03-08 22:24:29.510 ,2,0,1.,0.8,0.,0.8,0.,0.8,5.,0.8
1979-03-08 22:24:30.310 ,2,0,1.,0.8,0.,0.8,0.,0.8,2.,0.8
1979-03-08 22:24:31.110 ,2,0,3.,0.8,0.,0.8,0.,0.8,3.,0.8
1979-03-08 22:24:31.910 ,2,0,4.,0.8,0.,0.8,0.,0.8,4.,0.8
1979-03-08 22:24:32.710 ,2,0,1.,0.8,0.,0.8,0.,0.8,5.,0.8
1979-03-08 22:24:33.510 ,2,0,2.,0.8,0.,0.8,0.,0.8,2.,0.8
1979-03-08 22:24:34.310 ,2,0,2.,0.8,0.,0.8,0.,0.8,4.,0.8
1979-03-08 22:24:35.110 ,2,0,0.,0.8,0.,0.8,0.,0.8,0.,0.8
1979-03-08 22:24:35.910 ,2,0,1.,0.8,0.,0.8,0.,0.8,3.,0.8
1979-03-08 22:24:36.710 ,2,0,2.,0.8,0.,0.8,0.,0.8,3.,0.8
1979-03-08 22:24:37.510 ,2,0,0.,0.8,0.,0.8,0.,0.8,7.,0.8
1979-03-08 22:24:38.310 ,2,0,1.,0.8,0.,0.8,0.,0.8,3.,0.8
1979-03-08 22:24:39.110 ,2,0,2.,0.8,0.,0.8,0.,0.8,6.,0.8
1979-03-08 22:24:39.910 ,2,0,1.,0.8,0.,0.8,0.,0.8,3.,0.8
1979-03-08 22:24:40.710 ,2,0,4.,0.8,0.,0.8,0.,0.8,9.,0.8
1979-03-08 22:24:41.510 ,2,0,0.,0.8,0.,0.8,0.,0.8,3.,0.8
1979-03-08 22:24:42.310 ,2,0,0.,0.8,0.,0.8,0.,0.8,1.,0.8
1979-03-08 22:24:43.110 ,2,0,1.,0.8,0.,0.8,0.,0.8,4.,0.8
1979-03-08 22:24:43.910 ,2,0,0.,0.8,0.,0.8,0.,0.8,2.,0.8
1979-03-08 22:24:44.710 ,3,0,2.,0.8,0.,0.8,0.,0.8,3.,0.8
1979-03-08 22:24:45.510 ,3,0,2.,0.8,0.,0.8,0.,0.8,5.,0.8
1979-03-08 22:24:46.310 ,3,0,1.,0.8,0.,0.8,0.,0.8,5.,0.8
1979-03-08 22:24:47.110 ,3,0,2.,0.8,0.,0.8,0.,0.8,5.,0.8
1979-03-08 22:24:47.910 ,3,0,3.,0.8,0.,0.8,0.,0.8,6.,0.8
1979-03-08 22:24:48.710 ,3,0,1.,0.8,0.,0.8,0.,0.8,3.,0.8
1979-03-08 22:24:49.510 ,3,0,1.,0.8,0.,0.8,0.,0.8,2.,0.8
1979-03-08 22:24:50.310 ,3,0,0.,0.8,0.,0.8,0.,0.8,1.,0.8
1979-03-08 22:24:51.110 ,3,0,0.,0.8,0.,0.8,0.,0.8,3.,0.8
1979-03-08 22:24:51.910 ,3,0,2.,0.8,0.,0.8,0.,0.8,6.,0.8
1979-03-08 22:24:52.710 ,3,0,2.,0.8,0.,0.8,0.,0.8,2.,0.8
1979-03-08 22:24:53.510 ,3,0,1.,0.8,0.,0.8,0.,0.8,4.,0.8
1979-03-08 22:24:54.310 ,3,0,1.,0.8,1.,0.8,0.,0.8,2.,0.8
1979-03-08 22:24:55.110 ,3,0,1.,0.8,0.,0.8,0.,0.8,1.,0.8
1979-03-08 22:24:55.910 ,3,0,0.,0.8,0.,0.8,0.,0.8,1.,0.8
1979-03-08 22:24:56.710 ,3,0,2.,0.8,0.,0.8,0.,0.8,3.,0.8
1979-03-08 22:24:57.510 ,3,0,1.,0.8,0.,0.8,0.,0.8,1.,0.8
1979-03-08 22:24:58.310 ,3,0,3.,0.8,0.,0.8,0.,0.8,5.,0.8
1979-03-08 22:24:59.110 ,3,0,1.,0.8,0.,0.8,0.,0.8,1.,0.8
1979-03-08 22:24:59.910 ,3,0,2.,0.8,0.,0.8,0.,0.8,6.,0.8
1979-03-08 22:25:00.710 ,3,0,0.,0.8,0.,0.8,0.,0.8,3.,0.8
1979-03-08 22:25:01.510 ,3,0,2.,0.8,0.,0.8,0.,0.8,2.,0.8
1979-03-08 22:25:02.310 ,3,0,0.,0.8,0.,0.8,0.,0.8,0.,0.8
1979-03-08 22:25:03.110 ,3,0,2.,0.8,0.,0.8,0.,0.8,7.,0.8
1979-03-08 22:25:03.910 ,3,0,2.,0.8,0.,0.8,0.,0.8,7.,0.8
1979-03-08 22:25:04.710 ,3,0,1.,0.8,0.,0.8,0.,0.8,3.,0.8
1979-03-08 22:25:05.510 ,3,0,1.,0.8,0.,0.8,0.,0.8,5.,0.8
1979-03-08 22:25:06.310 ,3,0,1.,0.8,0.,0.8,0.,0.8,3.,0.8
1979-03-08 22:25:07.110 ,3,0,3.,0.8,0.,0.8,0.,0.8,4.,0.8
1979-03-08 22:25:07.910 ,3,0,2.,0.8,0.,0.8,1.,0.8,6.,0.8
1979-03-08 22:25:08.710 ,4,0,1.,0.8,0.,0.8,0.,0.8,1.,0.8
1979-03-08 22:25:09.510 ,4,0,0.,0.8,0.,0.8,0.,0.8,3.,0.8
1979-03-08 22:25:10.310 ,4,0,2.,0.8,0.,0.8,0.,0.8,1.,0.8
1979-03-08 22:25:11.110 ,4,0,0.,0.8,0.,0.8,0.,0.8,0.,0.8
1979-03-08 22:25:11.910 ,4,0,4.,0.8,0.,0.8,0.,0.8,6.,0.8
1979-03-08 22:25:12.710 ,4,0,1.,0.8,0.,0.8,0.,0.8,3.,0.8
1979-03-08 22:25:13.510 ,4,0,1.,0.8,0.,0.8,0.,0.8,2.,0.8
1979-03-08 22:25:14.310 ,4,0,0.,0.8,0.,0.8,0.,0.8,0.,0.8
1979-03-08 22:25:15.110 ,4,0,1.,0.8,0.,0.8,0.,0.8,2.,0.8
1979-03-08 22:25:15.910 ,4,0,2.,0.8,0.,0.8,0.,0.8,7.,0.8
1979-03-08 22:25:16.710 ,4,0,0.,0.8,0.,0.8,0.,0.8,0.,0.8
1979-03-08 22:25:17.510 ,4,0,1.,0.8,0.,0.8,0.,0.8,3.,0.8
1979-03-08 22:25:18.310 ,4,0,1.,0.8,0.,0.8,0.,0.8,3.,0.8
1979-03-08 22:25:19.110 ,4,0,1.,0.8,0.,0.8,0.,0.8,3.,0.8
1979-03-08 22:25:19.910 ,4,0,1.,0.8,0.,0.8,0.,0.8,3.,0.8
1979-03-08 22:25:20.710 ,4,0,1.,0.8,0.,0.8,0.,0.8,3.,0.8
1979-03-08 22:25:21.510 ,4,0,1.,0.8,0.,0.8,0.,0.8,2.,0.8
1979-03-08 22:25:22.310 ,4,0,3.,0.8,0.,0.8,0.,0.8,5.,0.8
1979-03-08 22:25:23.110 ,4,0,3.,0.8,0.,0.8,0.,0.8,5.,0.8
1979-03-08 22:25:23.910 ,4,0,3.,0.8,0.,0.8,0.,0.8,3.,0.8
1979-03-08 22:25:24.710 ,4,0,2.,0.8,0.,0.8,0.,0.8,5.,0.8
1979-03-08 22:25:25.510 ,4,0,0.,0.8,0.,0.8,0.,0.8,2.,0.8
1979-03-08 22:25:26.310 ,4,0,2.,0.8,0.,0.8,0.,0.8,4.,0.8
1979-03-08 22:25:27.110 ,4,0,1.,0.8,0.,0.8,0.,0.8,1.,0.8
1979-03-08 22:25:27.910 ,4,0,1.,0.8,0.,0.8,0.,0.8,2.,0.8
1979-03-08 22:25:28.710 ,4,0,1.,0.8,0.,0.8,0.,0.8,4.,0.8
1979-03-08 22:25:29.510 ,4,0,0.,0.8,0.,0.8,0.,0.8,4.,0.8
1979-03-08 22:25:30.310 ,4,0,2.,0.8,0.,0.8,0.,0.8,9.,0.8
1979-03-08 22:25:31.110 ,4,0,1.,0.8,0.,0.8,0.,0.8,1.,0.8
1979-03-08 22:25:31.910 ,4,0,2.,0.8,0.,0.8,0.,0.8,6.,0.8
1979-03-08 22:25:32.710 ,5,0,1.,0.8,0.,0.8,0.,0.8,3.,0.8
1979-03-08 22:25:33.510 ,5,0,1.,0.8,0.,0.8,0.,0.8,2.,0.8
1979-03-08 22:25:34.310 ,5,0,1.,0.8,0.,0.8,0.,0.8,6.,0.8
1979-03-08 22:25:35.110 ,5,0,2.,0.8,0.,0.8,0.,0.8,6.,0.8
1979-03-08 22:25:35.910 ,5,0,2.,0.8,0.,0.8,0.,0.8,1.,0.8
1979-03-08 22:25:36.710 ,5,0,2.,0.8,0.,0.8,0.,0.8,3.,0.8
1979-03-08 22:25:37.510 ,5,0,1.,0.8,0.,0.8,0.,0.8,4.,0.8
1979-03-08 22:25:38.310 ,5,0,0.,0.8,0.,0.8,0.,0.8,6.,0.8
1979-03-08 22:25:39.110 ,5,0,2.,0.8,0.,0.8,0.,0.8,2.,0.8
1979-03-08 22:25:39.910 ,5,0,0.,0.8,0.,0.8,0.,0.8,3.,0.8
1979-03-08 22:25:40.710 ,5,0,2.,0.8,0.,0.8,0.,0.8,4.,0.8
1979-03-08 22:25:41.510 ,5,0,2.,0.8,0.,0.8,0.,0.8,5.,0.8
1979-03-08 22:25:42.310 ,5,0,0.,0.8,0.,0.8,0.,0.8,2.,0.8
1979-03-08 22:25:43.110 ,5,0,2.,0.8,0.,0.8,0.,0.8,5.,0.8
1979-03-08 22:25:43.910 ,5,0,1.,0.8,0.,0.8,0.,0.8,5.,0.8
1979-03-08 22:25:44.710 ,5,0,1.,0.8,0.,0.8,0.,0.8,2.,0.8
1979-03-08 22:25:45.510 ,5,0,0.,0.8,0.,0.8,0.,0.8,3.,0.8
1979-03-08 22:25:46.310 ,5,0,2.,0.8,0.,0.8,0.,0.8,4.,0.8
1979-03-08 22:25:47.110 ,5,0,2.,0.8,0.,0.8,0.,0.8,2.,0.8
1979-03-08 22:25:47.910 ,5,0,1.,0.8,0.,0.8,0.,0.8,4.,0.8
1979-03-08 22:25:48.710 ,5,0,2.,0.8,0.,0.8,0.,0.8,6.,0.8
1979-03-08 22:25:49.510 ,5,0,1.,0.8,0.,0.8,0.,0.8,4.,0.8
1979-03-08 22:25:50.310 ,5,0,3.,0.8,0.,0.8,0.,0.8,4.,0.8
1979-03-08 22:25:51.110 ,5,0,1.,0.8,0.,0.8,0.,0.8,3.,0.8
1979-03-08 22:25:51.910 ,5,0,0.,0.8,0.,0.8,0.,0.8,2.,0.8
1979-03-08 22:25:52.710 ,5,0,1.,0.8,0.,0.8,0.,0.8,3.,0.8
1979-03-08 22:25:53.510 ,5,0,2.,0.8,0.,0.8,0.,0.8,6.,0.8
1979-03-08 22:25:54.310 ,5,0,3.,0.8,0.,0.8,0.,0.8,5.,0.8
1979-03-08 22:25:55.110 ,5,0,0.,0.8,0.,0.8,0.,0.8,3.,0.8
1979-03-08 22:25:55.910 ,5,0,2.,0.8,0.,0.8,0.,0.8,3.,0.8
1979-03-08 22:25:56.710 ,6,0,2.,0.8,0.,0.8,0.,0.8,5.,0.8
1979-03-08 22:25:57.510 ,6,0,1.,0.8,0.,0.8,0.,0.8,3.,0.8
1979-03-08 22:25:58.310 ,6,0,3.,0.8,0.,0.8,0.,0.8,4.,0.8
1979-03-08 22:25:59.110 ,6,0,2.,0.8,0.,0.8,0.,0.8,7.,0.8
1979-03-08 22:25:59.910 ,6,0,1.,0.8,0.,0.8,0.,0.8,4.,0.8
1979-03-08 22:26:00.710 ,6,0,2.,0.8,0.,0.8,0.,0.8,5.,0.8
1979-03-08 22:26:01.510 ,6,0,2.,0.8,0.,0.8,0.,0.8,4.,0.8
1979-03-08 22:26:02.310 ,6,0,1.,0.8,0.,0.8,0.,0.8,4.,0.8
1979-03-08 22:26:03.110 ,6,0,2.,0.8,0.,0.8,0.,0.8,5.,0.8
1979-03-08 22:26:03.910 ,6,0,3.,0.8,0.,0.8,0.,0.8,4.,0.8
1979-03-08 22:26:04.710 ,6,0,4.,0.8,0.,0.8,0.,0.8,4.,0.8
1979-03-08 22:26:05.510 ,6,0,1.,0.8,0.,0.8,0.,0.8,0.,0.8
1979-03-08 22:26:06.310 ,6,0,2.,0.8,0.,0.8,0.,0.8,3.,0.8
1979-03-08 22:26:07.110 ,6,0,2.,0.8,0.,0.8,0.,0.8,0.,0.8
1979-03-08 22:26:07.910 ,6,0,1.,0.8,0.,0.8,0.,0.8,5.,0.8
1979-03-08 22:26:08.710 ,6,0,2.,0.8,0.,0.8,0.,0.8,5.,0.8
1979-03-08 22:26:09.510 ,6,0,1.,0.8,0.,0.8,0.,0.8,3.,0.8
1979-03-08 22:26:10.310 ,6,0,1.,0.8,0.,0.8,0.,0.8,6.,0.8
1979-03-08 22:26:11.110 ,6,0,1.,0.8,0.,0.8,0.,0.8,2.,0.8
1979-03-08 22:26:11.910 ,6,0,1.,0.8,0.,0.8,0.,0.8,2.,0.8
1979-03-08 22:26:12.710 ,6,0,2.,0.8,0.,0.8,0.,0.8,2.,0.8
1979-03-08 22:26:13.510 ,6,0,1.,0.8,0.,0.8,0.,0.8,2.,0.8
1979-03-08 22:26:14.310 ,6,0,2.,0.8,0.,0.8,0.,0.8,2.,0.8
1979-03-08 22:26:15.110 ,6,0,3.,0.8,0.,0.8,0.,0.8,5.,0.8
1979-03-08 22:26:15.910 ,6,0,2.,0.8,0.,0.8,0.,0.8,4.,0.8
1979-03-08 22:26:16.710 ,6,0,1.,0.8,0.,0.8,0.,0.8,3.,0.8
1979-03-08 22:26:17.510 ,6,0,0.,0.8,0.,0.8,0.,0.8,4.,0.8
1979-03-08 22:26:18.310 ,6,0,1.,0.8,0.,0.8,0.,0.8,4.,0.8
1979-03-08 22:26:19.110 ,6,0,3.,0.8,0.,0.8,0.,0.8,3.,0.8
1979-03-08 22:26:19.910 ,6,0,1.,0.8,0.,0.8,0.,0.8,1.,0.8
1979-03-08 22:26:20.710 ,7,0,1.,0.8,0.,0.8,0.,0.8,2.,0.8
1979-03-08 22:26:21.510 ,7,0,1.,0.8,0.,0.8,0.,0.8,9.,0.8
1979-03-08 22:26:22.310 ,7,0,1.,0.8,0.,0.8,0.,0.8,6.,0.8
1979-03-08 22:26:23.110 ,7,0,1.,0.8,0.,0.8,0.,0.8,8.,0.8
1979-03-08 22:26:23.910 ,7,0,3.,0.8,0.,0.8,0.,0.8,4.,0.8
1979-03-08 22:26:24.710 ,7,0,1.,0.8,0.,0.8,0.,0.8,3.,0.8
1979-03-08 22:26:25.510 ,7,0,2.,0.8,0.,0.8,0.,0.8,4.,0.8
1979-03-08 22:26:26.310 ,7,0,0.,0.8,0.,0.8,0.,0.8,4.,0.8
1979-03-08 22:26:27.110 ,7,0,2.,0.8,0.,0.8,0.,0.8,2.,0.8
1979-03-08 22:26:27.910 ,7,0,2.,0.8,0.,0.8,0.,0.8,5.,0.8
1979-03-08 22:26:28.710 ,7,0,0.,0.8,0.,0.8,0.,0.8,4.,0.8
1979-03-08 22:26:29.510 ,7,0,2.,0.8,0.,0.8,0.,0.8,2.,0.8
1979-03-08 22:26:30.310 ,7,0,2.,0.8,0.,0.8,0.,0.8,6.,0.8
1979-03-08 22:26:31.110 ,7,0,3.,0.8,0.,0.8,0.,0.8,6.,0.8
1979-03-08 22:26:31.910 ,7,0,0.,0.8,0.,0.8,0.,0.8,1.,0.8
1979-03-08 22:26:32.710 ,7,0,1.,0.8,0.,0.8,0.,0.8,0.,0.8
1979-03-08 22:26:33.510 ,7,0,3.,0.8,0.,0.8,0.,0.8,2.,0.8
1979-03-08 22:26:34.310 ,7,0,1.,0.8,0.,0.8,0.,0.8,7.,0.8
1979-03-08 22:26:35.110 ,7,0,1.,0.8,0.,0.8,0.,0.8,0.,0.8
1979-03-08 22:26:35.910 ,7,0,1.,0.8,0.,0.8,0.,0.8,3.,0.8
1979-03-08 22:26:36.710 ,7,0,2.,0.8,0.,0.8,0.,0.8,4.,0.8
1979-03-08 22:26:37.510 ,7,0,0.,0.8,0.,0.8,0.,0.8,0.,0.8
1979-03-08 22:26:38.310 ,7,0,1.,0.8,0.,0.8,0.,0.8,9.,0.8
1979-03-08 22:26:39.110 ,7,0,2.,0.8,0.,0.8,0.,0.8,4.,0.8
1979-03-08 22:26:39.910 ,7,0,3.,0.8,0.,0.8,0.,0.8,3.,0.8
1979-03-08 22:26:40.710 ,7,0,2.,0.8,0.,0.8,0.,0.8,7.,0.8
1979-03-08 22:26:41.510 ,7,0,2.,0.8,0.,0.8,0.,0.8,7.,0.8
1979-03-08 22:26:42.310 ,7,0,3.,0.8,0.,0.8,0.,0.8,2.,0.8
1979-03-08 22:26:43.110 ,7,0,2.,0.8,0.,0.8,0.,0.8,0.,0.8
1979-03-08 22:26:43.910 ,7,0,2.,0.8,0.,0.8,0.,0.8,5.,0.8
1979-03-08 22:26:44.710 ,7,0,3.,0.8,0.,0.8,0.,0.8,4.,0.8
1979-03-08 22:26:45.510 ,7,0,2.,0.8,0.,0.8,0.,0.8,3.,0.8
1979-03-08 22:26:46.310 ,7,0,2.,0.8,0.,0.8,0.,0.8,3.,0.8
1979-03-08 22:26:47.110 ,7,0,2.,0.8,0.,0.8,0.,0.8,3.,0.8
1979-03-08 22:26:47.910 ,7,0,2.,0.8,0.,0.8,0.,0.8,3.,0.8
1979-03-08 22:26:48.710 ,7,0,2.,0.8,0.,0.8,0.,0.8,5.,0.8
1979-03-08 22:26:49.510 ,7,0,1.,0.8,0.,0.8,0.,0.8,2.,0.8
1979-03-08 22:26:50.310 ,7,0,1.,0.8,0.,0.8,0.,0.8,5.,0.8
1979-03-08 22:26:51.110 ,7,0,,0,,0,,0,,0
1979-03-08 22:26:51.910 ,7,0,,0,,0,,0,,0
1979-03-08 22:26:52.710 ,7,0,0.,0.8,0.,0.8,0.,0.8,8.,0.8
1979-03-08 22:26:53.510 ,7,0,2.,0.8,0.,0.8,0.,0.8,3.,0.8
1979-03-08 22:26:54.310 ,7,0,2.,0.8,0.,0.8,0.,0.8,1.,0.8
1979-03-08 22:26:55.110 ,7,0,1.,0.8,0.,0.8,0.,0.8,2.,0.8
1979-03-08 22:26:55.910 ,7,0,0.,0.8,0.,0.8,0.,0.8,2.,0.8
1979-03-08 22:26:56.710 ,7,0,4.,0.8,0.,0.8,0.,0.8,6.,0.8
1979-03-08 22:26:57.510 ,7,0,3.,0.8,0.,0.8,0.,0.8,2.,0.8
1979-03-08 22:26:58.310 ,7,0,0.,0.8,0.,0.8,0.,0.8,2.,0.8
1979-03-08 22:26:59.110 ,7,0,0.,0.8,0.,0.8,0.,0.8,4.,0.8
1979-03-08 22:26:59.910 ,7,0,1.,0.8,0.,0.8,0.,0.8,3.,0.8
1979-03-08 22:27:00.710 ,7,0,1.,0.8,0.,0.8,0.,0.8,4.,0.8
1979-03-08 22:27:01.510 ,7,0,2.,0.8,0.,0.8,0.,0.8,6.,0.8
1979-03-08 22:27:02.310 ,7,0,0.,0.8,0.,0.8,0.,0.8,7.,0.8
1979-03-08 22:27:03.110 ,7,0,2.,0.8,0.,0.8,0.,0.8,2.,0.8
1979-03-08 22:27:03.910 ,7,0,1.,0.8,0.,0.8,0.,0.8,1.,0.8
1979-03-08 22:27:04.710 ,7,0,0.,0.8,0.,0.8,0.,0.8,1.,0.8
1979-03-08 22:27:05.510 ,7,0,3.,0.8,0.,0.8,0.,0.8,4.,0.8
1979-03-08 22:27:06.310 ,7,0,0.,0.8,0.,0.8,0.,0.8,2.,0.8
1979-03-08 22:27:07.110 ,7,0,1.,0.8,0.,0.8,0.,0.8,2.,0.8
1979-03-08 22:27:07.910 ,7,0,1.,0.8,0.,0.8,0.,0.8,4.,0.8
1979-03-08 22:27:08.710 ,6,0,2.,0.8,0.,0.8,0.,0.8,1.,0.8
1979-03-08 22:27:09.510 ,6,0,2.,0.8,0.,0.8,0.,0.8,3.,0.8
1979-03-08 22:27:10.310 ,6,0,2.,0.8,0.,0.8,0.,0.8,3.,0.8
1979-03-08 22:27:11.110 ,6,0,0.,0.8,0.,0.8,0.,0.8,1.,0.8
1979-03-08 22:27:11.910 ,6,0,1.,0.8,0.,0.8,0.,0.8,7.,0.8
1979-03-08 22:27:12.710 ,6,0,1.,0.8,0.,0.8,0.,0.8,5.,0.8
1979-03-08 22:27:13.510 ,6,0,2.,0.8,0.,0.8,0.,0.8,3.,0.8
1979-03-08 22:27:14.310 ,6,0,2.,0.8,0.,0.8,0.,0.8,4.,0.8
1979-03-08 22:27:15.110 ,6,0,4.,0.8,0.,0.8,0.,0.8,1.,0.8
1979-03-08 22:27:15.910 ,6,0,0.,0.8,0.,0.8,0.,0.8,1.,0.8
1979-03-08 22:27:16.710 ,6,0,2.,0.8,0.,0.8,0.,0.8,7.,0.8
1979-03-08 22:27:17.510 ,6,0,1.,0.8,0.,0.8,0.,0.8,3.,0.8
1979-03-08 22:27:18.310 ,6,0,3.,0.8,0.,0.8,0.,0.8,4.,0.8
1979-03-08 22:27:19.110 ,6,0,1.,0.8,0.,0.8,0.,0.8,3.,0.8
1979-03-08 22:27:19.910 ,6,0,1.,0.8,0.,0.8,1.,0.8,3.,0.8
1979-03-08 22:27:20.710 ,6,0,0.,0.8,0.,0.8,0.,0.8,2.,0.8
1979-03-08 22:27:21.510 ,6,0,2.,0.8,0.,0.8,0.,0.8,2.,0.8
1979-03-08 22:27:22.310 ,6,0,0.,0.8,0.,0.8,0.,0.8,1.,0.8
1979-03-08 22:27:23.110 ,6,0,2.,0.8,0.,0.8,0.,0.8,6.,0.8
1979-03-08 22:27:23.910 ,6,0,2.,0.8,0.,0.8,0.,0.8,5.,0.8
1979-03-08 22:27:24.710 ,6,0,2.,0.8,0.,0.8,0.,0.8,1.,0.8
1979-03-08 22:27:25.510 ,6,0,0.,0.8,0.,0.8,0.,0.8,1.,0.8
1979-03-08 22:27:26.310 ,6,0,0.,0.8,0.,0.8,0.,0.8,3.,0.8
1979-03-08 22:27:27.110 ,6,0,0.,0.8,0.,0.8,0.,0.8,2.,0.8
1979-03-08 22:27:27.910 ,6,0,1.,0.8,0.,0.8,0.,0.8,6.,0.8
1979-03-08 22:27:28.710 ,6,0,1.,0.8,0.,0.8,0.,0.8,4.,0.8
1979-03-08 22:27:29.510 ,6,0,1.,0.8,0.,0.8,0.,0.8,4.,0.8
1979-03-08 22:27:30.310 ,6,0,2.,0.8,0.,0.8,0.,0.8,6.,0.8
1979-03-08 22:27:31.110 ,6,0,1.,0.8,0.,0.8,0.,0.8,4.,0.8
1979-03-08 22:27:31.910 ,6,0,1.,0.8,0.,0.8,0.,0.8,5.,0.8
1979-03-08 22:27:32.710 ,5,0,0.,0.8,0.,0.8,0.,0.8,4.,0.8
1979-03-08 22:27:33.510 ,5,0,2.,0.8,0.,0.8,0.,0.8,1.,0.8
1979-03-08 22:27:34.310 ,5,0,2.,0.8,0.,0.8,0.,0.8,7.,0.8
1979-03-08 22:27:35.110 ,5,0,1.,0.8,0.,0.8,0.,0.8,10.,0.8
1979-03-08 22:27:35.910 ,5,0,1.,0.8,0.,0.8,0.,0.8,1.,0.8
1979-03-08 22:27:36.710 ,5,0,1.,0.8,0.,0.8,0.,0.8,6.,0.8
1979-03-08 22:27:37.510 ,5,0,1.,0.8,0.,0.8,0.,0.8,3.,0.8
1979-03-08 22:27:38.310 ,5,0,1.,0.8,0.,0.8,0.,0.8,3.,0.8
1979-03-08 22:27:39.110 ,5,0,1.,0.8,0.,0.8,0.,0.8,2.,0.8
1979-03-08 22:27:39.910 ,5,0,1.,0.8,0.,0.8,0.,0.8,3.,0.8
1979-03-08 22:27:40.710 ,5,0,0.,0.8,0.,0.8,0.,0.8,3.,0.8
1979-03-08 22:27:41.510 ,5,0,2.,0.8,0.,0.8,0.,0.8,4.,0.8
1979-03-08 22:27:42.310 ,5,0,2.,0.8,0.,0.8,0.,0.8,5.,0.8
1979-03-08 22:27:43.110 ,5,0,1.,0.8,0.,0.8,0.,0.8,2.,0.8
1979-03-08 22:27:43.910 ,5,0,3.,0.8,0.,0.8,0.,0.8,4.,0.8
1979-03-08 22:27:44.710 ,5,0,0.,0.8,0.,0.8,0.,0.8,2.,0.8
1979-03-08 22:27:45.510 ,5,0,1.,0.8,0.,0.8,0.,0.8,5.,0.8
1979-03-08 22:27:46.310 ,5,0,1.,0.8,0.,0.8,0.,0.8,1.,0.8
1979-03-08 22:27:47.110 ,5,0,2.,0.8,0.,0.8,0.,0.8,4.,0.8
1979-03-08 22:27:47.910 ,5,0,0.,0.8,0.,0.8,0.,0.8,2.,0.8
1979-03-08 22:27:48.710 ,5,0,3.,0.8,0.,0.8,0.,0.8,4.,0.8
1979-03-08 22:27:49.510 ,5,0,0.,0.8,0.,0.8,0.,0.8,2.,0.8
1979-03-08 22:27:50.310 ,5,0,1.,0.8,0.,0.8,0.,0.8,7.,0.8
1979-03-08 22:27:51.110 ,5,0,1.,0.8,0.,0.8,0.,0.8,3.,0.8
1979-03-08 22:27:51.910 ,5,0,1.,0.8,0.,0.8,0.,0.8,5.,0.8
1979-03-08 22:27:52.710 ,5,0,1.,0.8,0.,0.8,0.,0.8,6.,0.8
1979-03-08 22:27:53.510 ,5,0,2.,0.8,0.,0.8,0.,0.8,2.,0.8
1979-03-08 22:27:54.310 ,5,0,1.,0.8,0.,0.8,0.,0.8,4.,0.8
1979-03-08 22:27:55.110 ,5,0,2.,0.8,0.,0.8,0.,0.8,7.,0.8
1979-03-08 22:27:55.910 ,5,0,1.,0.8,0.,0.8,0.,0.8,6.,0.8
1979-03-08 22:27:56.710 ,4,0,1.,0.8,0.,0.8,0.,0.8,3.,0.8
1979-03-08 22:27:57.510 ,4,0,1.,0.8,0.,0.8,0.,0.8,5.,0.8
1979-03-08 22:27:58.310 ,4,0,2.,0.8,0.,0.8,0.,0.8,3.,0.8
1979-03-08 22:27:59.110 ,4,0,1.,0.8,0.,0.8,0.,0.8,6.,0.8
1979-03-08 22:27:59.910 ,4,0,1.,0.8,0.,0.8,0.,0.8,6.,0.8
1979-03-08 22:28:00.710 ,4,0,3.,0.8,0.,0.8,0.,0.8,2.,0.8
1979-03-08 22:28:01.510 ,4,0,2.,0.8,0.,0.8,0.,0.8,3.,0.8
1979-03-08 22:28:02.310 ,4,0,0.,0.8,0.,0.8,0.,0.8,4.,0.8
1979-03-08 22:28:03.110 ,4,0,2.,0.8,0.,0.8,0.,0.8,3.,0.8
1979-03-08 22:28:03.910 ,4,0,0.,0.8,0.,0.8,0.,0.8,5.,0.8
1979-03-08 22:28:04.710 ,4,0,2.,0.8,0.,0.8,0.,0.8,2.,0.8
1979-03-08 22:28:05.510 ,4,0,2.,0.8,0.,0.8,0.,0.8,7.,0.8
1979-03-08 22:28:06.310 ,4,0,4.,0.8,0.,0.8,0.,0.8,7.,0.8
1979-03-08 22:28:07.110 ,4,0,0.,0.8,0.,0.8,0.,0.8,3.,0.8
1979-03-08 22:28:07.910 ,4,0,2.,0.8,0.,0.8,0.,0.8,3.,0.8
1979-03-08 22:28:08.710 ,4,0,2.,0.8,0.,0.8,0.,0.8,6.,0.8
1979-03-08 22:28:09.510 ,4,0,1.,0.8,0.,0.8,0.,0.8,3.,0.8
1979-03-08 22:28:10.310 ,4,0,0.,0.8,0.,0.8,0.,0.8,3.,0.8
1979-03-08 22:28:11.110 ,4,0,1.,0.8,0.,0.8,0.,0.8,0.,0.8
1979-03-08 22:28:11.910 ,4,0,0.,0.8,0.,0.8,0.,0.8,3.,0.8
1979-03-08 22:28:12.710 ,4,0,3.,0.8,0.,0.8,0.,0.8,5.,0.8
1979-03-08 22:28:13.510 ,4,0,1.,0.8,0.,0.8,0.,0.8,3.,0.8
1979-03-08 22:28:14.310 ,4,0,2.,0.8,0.,0.8,0.,0.8,5.,0.8
1979-03-08 22:28:15.110 ,4,0,3.,0.8,0.,0.8,0.,0.8,8.,0.8
1979-03-08 22:28:15.910 ,4,0,3.,0.8,0.,0.8,0.,0.8,6.,0.8
1979-03-08 22:28:16.710 ,4,0,1.,0.8,0.,0.8,0.,0.8,2.,0.8
1979-03-08 22:28:17.510 ,4,0,3.,0.8,0.,0.8,0.,0.8,9.,0.8
1979-03-08 22:28:18.310 ,4,0,1.,0.8,0.,0.8,0.,0.8,5.,0.8
1979-03-08 22:28:19.110 ,4,0,1.,0.8,0.,0.8,0.,0.8,3.,0.8
1979-03-08 22:28:19.910 ,4,0,1.,0.8,0.,0.8,0.,0.8,5.,0.8
1979-03-08 22:28:20.710 ,3,0,3.,0.8,0.,0.8,0.,0.8,6.,0.8
1979-03-08 22:28:21.510 ,3,0,1.,0.8,0.,0.8,0.,0.8,4.,0.8
1979-03-08 22:28:22.310 ,3,0,2.,0.8,0.,0.8,0.,0.8,5.,0.8
1979-03-08 22:28:23.110 ,3,0,3.,0.8,0.,0.8,0.,0.8,7.,0.8
1979-03-08 22:28:23.910 ,3,0,1.,0.8,0.,0.8,0.,0.8,5.,0.8
1979-03-08 22:28:24.710 ,3,0,2.,0.8,0.,0.8,0.,0.8,3.,0.8
1979-03-08 22:28:25.510 ,3,0,1.,0.8,0.,0.8,0.,0.8,6.,0.8
1979-03-08 22:28:26.310 ,3,0,2.,0.8,0.,0.8,0.,0.8,5.,0.8
1979-03-08 22:28:27.110 ,3,0,1.,0.8,0.,0.8,0.,0.8,1.,0.8
1979-03-08 22:28:27.910 ,3,0,2.,0.8,0.,0.8,0.,0.8,6.,0.8
1979-03-08 22:28:28.710 ,3,0,1.,0.8,0.,0.8,0.,0.8,4.,0.8
1979-03-08 22:28:29.510 ,3,0,1.,0.8,0.,0.8,0.,0.8,2.,0.8
1979-03-08 22:28:30.310 ,3,0,3.,0.8,0.,0.8,0.,0.8,4.,0.8
1979-03-08 22:28:31.110 ,3,0,2.,0.8,0.,0.8,0.,0.8,4.,0.8
1979-03-08 22:28:31.910 ,3,0,0.,0.8,1.,0.8,0.,0.8,3.,0.8
1979-03-08 22:28:32.710 ,3,0,3.,0.8,0.,0.8,0.,0.8,4.,0.8
1979-03-08 22:28:33.510 ,3,0,1.,0.8,0.,0.8,0.,0.8,3.,0.8
1979-03-08 22:28:34.310 ,3,0,2.,0.8,0.,0.8,0.,0.8,3.,0.8
1979-03-08 22:28:35.110 ,3,0,1.,0.8,0.,0.8,0.,0.8,3.,0.8
1979-03-08 22:28:35.910 ,3,0,2.,0.8,0.,0.8,0.,0.8,6.,0.8
1979-03-08 22:28:36.710 ,3,0,1.,0.8,0.,0.8,0.,0.8,7.,0.8
1979-03-08 22:28:37.510 ,3,0,3.,0.8,0.,0.8,0.,0.8,7.,0.8
1979-03-08 22:28:38.310 ,3,0,2.,0.8,0.,0.8,0.,0.8,4.,0.8